User: anonymous
Location: Camp Creek
(33.9000°N, 111.8167°W)
Time: 11:29:55
(UTC-07:00)
Language:

DELTA 2 R/B (1) - Orbit

View from above orbital plane
View from above orbital plane
View from above satellite
View from above satellite

Ground track
Ground track

The orbit data is extracted from the following two-line orbital elements,

1 27665U 03005C   14231.45598405 -.00000108  00000-0 -90651-5 0   915
2 27665 039.5765 328.0749 0008303 032.7796 019.1072 14.28210228603238
Epoch (UTC): 19 August 2014 10:56:37
Eccentricity: 0.0008303
inclination: 39.5765°
perigee height: 792 km
apogee height: 803 km
right ascension of ascending node: 328.0749°
argument of perigee: 32.7796°
revolutions per day: 14.28210228
mean anomaly at epoch: 19.1072°
orbit number at epoch: 60323

The dashed part of the orbit path shows where the satellite is in the earth's shadow,  

DLR